Regional Weather Roundup
Issued by NWS

Home | Current Version | Previous Version | Text Only | Print | Product List | Glossary On
Versions: 1 2 3 4 5 6 7 8 9 10 11 12 13 14 15 16 17 18 19 20 21 22 23 24 25 26 27 28 29 30 31 32 33 34 35 36 37 38 39 40 41 42 43 44 45 46 47 48 49 50
000
ASUS46 KPQR 312310
RWROR

OREGON REGIONAL WEATHER ROUNDUP
NATIONAL WEATHER SERVICE PORTLAND OR
400 PM PDT FRI JUL 31 2015

NOTE: "FAIR" INDICATES FEW OR NO CLOUDS BELOW 12,000 FEET WITH
NO SIGNIFICANT WEATHER AND/OR OBSTRUCTIONS TO VISIBILITY.

ORZ001>013-010000-
NORTHWEST OREGON


CITY           SKY/WX    TMP DP  RH WIND       PRES   REMARKS
ASTORIA        SUNNY     75  58  55 W15       30.05F
NEWPORT        SUNNY     64  55  72 N18G24    30.04F
PORTLAND       MOSUNNY  100  42  13 NW10      29.95F HX  95
VANCOUVER WA   SUNNY     99  38  12 NW9       29.95F HX  94
SCAPPOOSE      SUNNY    100  32   9 N14       29.95F HX  94
HILLSBORO      SUNNY     99  43  14 E7        29.96F HX  95
AURORA         SUNNY    100  39  12 NE9       29.97F HX  95
MCMINNVILLE    SUNNY    102  43  13 NW5       29.96F HX  97
SALEM          SUNNY    102  40  12 N9        29.95F HX  97
CORVALLIS      SUNNY    104  43  12 NE13      29.97F HX  99
EUGENE         MOSUNNY  102  38  11 N13       29.95F HX  96
$$

ORZ021-028-010000-
SOUTHWEST OREGON


CITY           SKY/WX    TMP DP  RH WIND       PRES   REMARKS
NORTH BEND     SUNNY     70  55  60 N23       29.97F
BROOKINGS      MOSUNNY   65  59  81 SE7       29.96F
ROSEBURG       SUNNY    106  43  12 N16G22    29.91F HX 101
SEXTON SUMMIT  MOSUNNY   93  48  21 CALM      30.14F HAZE
MEDFORD        MOSUNNY  106  44  12 NW6       29.90F HX 101
$$

ORZ014>016-041-010000-
COLUMBIA GORGE


CITY           SKY/WX    TMP DP  RH WIND       PRES   REMARKS
TROUTDALE      SUNNY    101  36  10 VRB5      29.94F HX  95
THE DALLES     SUNNY    109  27   6 NW14      29.87F HX 101
$$

ORZ029>031-041-044-049-050-061>064-502-503-505>511-010000-
EASTERN OREGON


CITY           SKY/WX    TMP DP  RH WIND       PRES   REMARKS
REDMOND        MOSUNNY   98  38  12 W7        30.06F HX  93
BEND           MOSUNNY   93  36  13 W7        30.10F
PRINEVILLE     MOSUNNY   97  36  11 W6        30.08F HX  92
KLAMATH FALLS  PTSUNNY   97  28   8 S5        30.13F HX  91
LAKEVIEW       PTSUNNY   95  34  11 N14G20    30.18F HX  90
HERMISTON      SUNNY    103  41  12 VRB3      29.90F HX  98
PENDLETON      SUNNY    102  31   8 NW9       29.96F HX  95
JOHN DAY       MOSUNNY   99  28   8 SW3       30.10F HX  92
MEACHAM        SUNNY     94  31  10 VRB6      30.14F
LA GRANDE      MOSUNNY  100  39  12 E7        30.03F HX  95
BAKER CITY     MOSUNNY   94  42  16 SW6       30.09F HX  90
BURNS          SUNNY     98  25   7 S9        30.15F HX  91
ROME             N/A    102  20   5 NE8       30.12F HX  94
ONTARIO        SUNNY     99  37  11 CALM      30.03F HX  94
$$


USA.gov is the U.S. government's official web portal to all federal, state and local government web resources and services.